Flight Track Log - Related Links

Times and Time Zones

All times are in EDT time to prevent confusion due to time zone crossing. See the UAL3740 flight status page for this flight to view local times or setup timezone preferences in your user account.

Time Position Orientation Groundspeed Altitude Reporting Facility
EDT Latitude Longitude Course Direction KTS MPH feet Rate Location/Type
08:29AM 38.9833 -77.4333 349° North 156 180 2,400  Level Potomac TRACON
08:30AM 39.0500 -77.4500 349° North 255 293 5,100 3,450 Climbing Potomac TRACON
08:31AM 39.1167 -77.4333 11° North 266 306 9,300 2,430 Climbing Potomac TRACON
08:33AM 39.1500 -77.3333 67° East 325 374 10,000 347 Climbing Potomac TRACON
08:34AM 39.1167 -77.2167 110° East 358 412 10,000 1,433 Level Potomac TRACON
08:36AM 39.0600 -76.9522 105° East 399 459 14,300 2,200 Climbing Washington Center
08:37AM 39.0825 -76.8028 79° East 399 459 16,600 2,100 Climbing Washington Center
08:38AM 39.1025 -76.6533 80° East 407 468 18,500 1,900 Climbing Washington Center
08:39AM 39.1225 -76.4958 81° East 429 494 20,400 1,950 Climbing Washington Center
08:40AM 39.1444 -76.3331 80° East 443 510 22,400 1,300 Climbing Washington Center
08:41AM 39.1622 -76.1617 82° East 465 535 23,000 300 Climbing Washington Center
08:42AM 39.1817 -75.9853 82° East 485 558 23,000 500 Level Washington Center
08:43AM 39.2342 -75.8328 66° East 475 547 24,000 1,350 Climbing Washington Center
08:44AM 39.3239 -75.7122 46° Northeast 457 526 25,700 1,550 Climbing Washington Center
08:45AM 39.4178 -75.5889 45° Northeast 457 526 27,100 1,400 Climbing Washington Center
08:46AM 39.5133 -75.4650 45° Northeast 462 532 28,500 1,074 Climbing Washington Center
08:48AM 39.7111 -75.2047 45° Northeast 479 551 30,500 1,263 Climbing New York Center
08:49AM 39.8039 -75.0672 49° Northeast 500 575 32,500 1,240 Climbing New York Center
08:50AM 39.8961 -74.9350 48° Northeast 500 575 33,000 248 Climbing New York Center
08:51AM 40.0036 -74.7814 48° Northeast 500 575 33,000  Level New York Center
08:52AM 40.0761 -74.6119 61° Northeast 518 596 33,000  Level New York Center
08:53AM 40.1442 -74.4392 63° Northeast 530 610 33,000  Level New York Center
08:54AM 40.2097 -74.2689 63° Northeast 530 610 33,000  Level New York Center
08:56AM 40.3292 -73.9508 64° Northeast 537 618 33,000 -35 Level Boston Center
08:57AM 40.3939 -73.7778 64° Northeast 532 612 32,900 -605 Descending Boston Center
08:58AM 40.4500 -73.6128 66° East 532 612 31,800 -1,200 Descending Boston Center
08:59AM 40.5119 -73.4500 63° Northeast 519 597 30,500 -1,300 Descending Boston Center
09:00AM 40.5697 -73.2817 66° East 508 585 29,200 -1,400 Descending Boston Center
09:01AM 40.6269 -73.1236 64° Northeast 494 568 27,700 -1,500 Descending Boston Center
09:02AM 40.6797 -72.9764 65° Northeast 466 536 26,200 -1,513 Descending Boston Center
09:03AM 40.7347 -72.8317 63° Northeast 442 509 24,700 -1,488 Descending Boston Center
09:04AM 40.7664 -72.6758 75° East 435 501 23,200 -1,500 Descending Boston Center
09:05AM 40.7853 -72.5142 81° East 435 501 21,700 -1,866 Descending Boston Center
09:06AM 40.8311 -72.3689 67° East 434 499 19,500 -2,220 Descending Boston Center
09:06AM 40.8686 -72.2975 55° Northeast 424 488 18,000 -2,361 Descending Boston Center
09:07AM 40.8936 -72.2425 59° Northeast 413 475 17,100 -2,444 Descending Boston Center
09:08AM 40.9536 -72.1214 57° Northeast 398 458 14,700 -2,400 Descending Boston Center
09:09AM 41.0094 -72.0083 57° Northeast 379 436 12,300 -1,900 Descending Boston Center
09:10AM 41.0653 -71.9061 54° Northeast 345 397 10,900 -1,591 Descending Boston Center
09:11AM 41.1314 -71.8008 50° Northeast 306 352 8,800 -1,669 Descending Boston Center
09:12AM 41.1850 -71.7119 51° Northeast 312 359 7,200 -1,587 Descending Boston Center
09:13AM 41.2428 -71.6147 52° Northeast 307 353 5,600 -1,100 Descending Boston Center
09:14AM 41.2964 -71.5339 49° Northeast 291 335 5,000 -298 Descending Boston Center
09:15AM 41.3456 -71.4503 52° Northeast 290 334 5,000  Level Boston Center
09:16AM 41.4078 -71.3939 34° Northeast 270 311 5,000  Level Boston Center
09:17AM 41.4764 -71.3789 North 259 298 5,000  Level Boston Center
09:18AM 41.5386 -71.3667 North 230 265 5,000  Level Boston Center
09:19AM 41.6011 -71.3547 North 225 259 5,000  Level Boston Center
09:20AM 41.6631 -71.3036 32° Northeast 243 280 5,000 -744 Level Boston Center
09:21AM 41.7169 -71.2608 31° Northeast 227 261 3,500 -1,400 Descending Boston Center
09:22AM 41.7631 -71.2822 341° North 178 205 2,200 -1,300 Descending Boston Center

Login

Don't have an account? Register now (free) for customized features, flight alerts, and more!